This is the latest recevied weather packets stored in our database for station/object PD2BVG. If no packets are shown the sender has not sent any weather packets the latest 10 day(s).
| Time | Temp. | Humidity | Pressure | Rain* | Wind** | Luminosity | Snow |
|---|---|---|---|---|---|---|---|
| 1787412581 | 18.33° C | 73% | 1023.2 hPa | 0 mm | - | 248 W/m² | - |
| 1787412521 | 18.33° C | 73% | 1023.2 hPa | 0 mm | - | 197 W/m² | - |
| 1787412461 | 18.33° C | 73% | 1023.2 hPa | 0 mm | - | 199 W/m² | - |
| 1787412402 | 18.33° C | 76% | 1023.2 hPa | 0 mm | - | 201 W/m² | - |
| 1787412341 | 18.33° C | 76% | 1023.2 hPa | 0 mm | - | 243 W/m² | - |
| 1787412281 | 18.33° C | 77% | 1023.2 hPa | 0 mm | - | 215 W/m² | - |
| 1787412221 | 18.33° C | 79% | 1023.1 hPa | 0 mm | - | 220 W/m² | - |
| 1787412161 | 17.78° C | 80% | 1023.2 hPa | 0 mm | - | 225 W/m² | - |
| 1787412101 | 17.78° C | 80% | 1023.2 hPa | 0 mm | - | 230 W/m² | - |
| 1787412042 | 17.78° C | 80% | 1023.1 hPa | 0 mm | - | 239 W/m² | - |
| 1787411981 | 17.78° C | 78% | 1023.1 hPa | 0 mm | - | 241 W/m² | - |
| 1787411923 | 17.78° C | 77% | 1023.1 hPa | 0 mm | - | 253 W/m² | - |
| 1787411870 | 17.78° C | 77% | 1023.1 hPa | 0 mm | - | 238 W/m² | - |
| 1787411802 | 17.78° C | 77% | 1023.1 hPa | 0 mm | - | 238 W/m² | - |
| 1787411742 | 18.33° C | 76% | 1023 hPa | 0 mm | - | 220 W/m² | - |
| 1787411681 | 18.33° C | 73% | 1023.1 hPa | 0 mm | - | 241 W/m² | - |
| 1787411621 | 18.33° C | 73% | 1023.1 hPa | 0 mm | - | 239 W/m² | - |
| 1787411561 | 18.33° C | 73% | 1023 hPa | 0 mm | - | 236 W/m² | - |
| 1787411503 | 18.33° C | 73% | 1023 hPa | 0 mm | - | 396 W/m² | - |
| 1787411441 | 18.33° C | 74% | 1023 hPa | 0 mm | - | 222 W/m² | - |
| 1787411382 | 18.33° C | 73% | 1023 hPa | 0 mm | - | 234 W/m² | - |
| 1787411323 | 18.33° C | 73% | 1023 hPa | 0 mm | - | 253 W/m² | - |
| 1787411261 | 18.33° C | 72% | 1022.9 hPa | 0 mm | - | 222 W/m² | - |
| 1787411202 | 18.33° C | 72% | 1023 hPa | 0 mm | - | 190 W/m² | - |
| 1787411142 | 18.33° C | 71% | 1022.9 hPa | 0 mm | - | 179 W/m² | - |
* Rain latest hour (hover to see other rain measurements)
** Current wind speed in m/s (hover to see current wind gust speed)